Regional Weather Roundup
Issued by NWS

Home | Current Version | Previous Version | Text Only | Print | Product List | Glossary On
Versions: 1 2 3 4 5 6 7 8 9 10 11 12 13 14 15 16 17 18 19 20 21 22 23 24 25 26 27 28 29 30 31 32 33 34 35 36 37 38 39 40 41 42 43 44 45 46 47 48 49 50
000
ASUS42 KTBW 300316
RWRFL
FLORIDA REGIONAL WEATHER ROUNDUP
NATIONAL WEATHER SERVICE TAMPA BAY RUSKIN FL
1100 PM EDT MON JUN 29 2015

NOTE: "FAIR" INDICATES FEW OR NO CLOUDS BELOW 12,000 FEET WITH NO
SIGNIFICANT WEATHER AND/OR OBSTRUCTIONS TO VISIBILITY.


FLZ001>010-012>015-112-114-115-300400-
PANHANDLE FLORIDA

CITY           SKY/WX    TMP DP  RH WIND       PRES   REMARKS
PENSACOLA      CLEAR     79  74  84 SW7       30.02R
PENSACOLA NAS  MOCLDY    77  70  79 CALM      30.02R
MILTON NAS     PTCLDY    78  73  84 SW5       30.02
CRESTVIEW      CLEAR     75  73  93 CALM      30.04R
DUKE FIELD     PTCLDY    76  71  86 CALM      30.01R
VALPARAISO     PTCLDY    81  74  79 W1        30.01R
MARY ESTHER    CLEAR     81  75  80 SW5       30.01R
TRI COUNTY     FAIR      77  74  90 SW5       30.03R
PANAMA CITY    FAIR      79  75  87 SW5       30.03R
TYNDALL AFB    CLEAR     81  75  81 W13       30.03R
APALACHICOLA   CLEAR     81  74  79 W3        30.04R

STATION/POSITION SKY/WX   TEMP    WIND        PRES    WAVE   SWELL
                          AIR SEA DIR/SP/G            HT/PER HT/PER
                          (F)     (DEG/KT/KT) (MB)    (FT/S) (FT/S)
30.1N   87.6W              83 84  240/  8/  8 1016.0R   2/ 4   2/ 4
29.2N   88.2W              84 83  240/ 16/ 17 1017.1R   3/ 4
28.8N   86.0W              82 84  220/  6/  8 1017.3    2/ 6   2/ 6
PANAMA CITY BEAC           82 82  260/ 15/ 18 1016.2R
CAPE SAN BLAS    NOT AVBL
TOWER C                    81     260/  9/ 10 1017.6R
28.5N   84.5W              83 84  270/ 10/ 12 1017.9R   3/ 6   3/ 6

$$
FLZ011-016>038-118-127-128-134-139-239-300400-
NORTH FLORIDA

CITY           SKY/WX    TMP DP  RH WIND       PRES   REMARKS
MARIANNA       MOCLDY    77  76  96 SW7       30.02R
TALLAHASSEE    PTCLDY    78  73  84 SW5       30.03R
PERRY            N/A     75  75  99 CALM      30.04S
CROSS CITY       N/A     77  73  87 CALM      30.04R
LAKE CITY      FAIR      73  72  94 CALM      30.05R
GAINESVILLE    MOCLDY    74  73  97 CALM      30.04S FOG
MAYPORT NAS    LGT RAIN  78  74  87 SW5       30.04R
JACKSONVILLE   MOCLDY    75  72  90 CALM      30.03R
JAX NAS        MOCLDY    83  72  69 SW8       30.03S
JAX CRAIG      TSTM      78  72  81 SW14      30.05R
JAX CECIL      PTCLDY    75  73  94 S6        30.04R
FERNANDINA BEA MOCLDY    79  75  89 SE5       30.03R
ST AUGUSTINE   MOCLDY    77  74  90 SW7       30.05R

STATION/POSITION SKY/WX   TEMP    WIND        PRES    WAVE   SWELL
                          AIR SEA DIR/SP/G            HT/PER HT/PER
                          (F)     (DEG/KT/KT) (MB)    (FT/S) (FT/S)
SHELL POINT                82     250/  5/  7   N/A
KEATON BEACH               82     240/ 10/ 12 1017.4R
CEDAR KEY                  82     270/  6/  8 1017.9R
FERNANDINA                 78 79  130/  3/  5 1016.1R
30.7N   81.3W                 79                N/A     1/ 9
MAYPORT                    79 77  190/  3/  5 1017.0R
31.4N   80.9W              79 79  200/ 12/ 14 1016.8R   2/ 8   2/ 8
ST AUGUSTINE               76 74  220/  6/  7 1018.3R

$$
FLZ040-043>046-052-053-057-058-063-144-300400-
INTERIOR CENTRAL FLORIDA

CITY           SKY/WX    TMP DP  RH WIND       PRES   REMARKS
OCALA          PTCLDY    75  73  94 S3        30.06S
THE VILLAGES     N/A    N/A N/A N/A CALM      29.97R
LEESBURG       PTCLDY    78  76  93 S6        30.08R
SANFORD        PTCLDY    76  74  93 S7        30.07S
ORLANDO EXEC   MOCLDY    77  76  96 S7        30.08R
ORLANDO INTL   MOCLDY    76  75  97 S7        30.09R
WINTER HAVEN   MOCLDY    78  75  90 S9        30.10R
LAKELAND       MOCLDY    77  72  83 S3        30.10R
BARTOW         FAIR      75 N/A N/A S3        30.11R
OKEECHOBEE     CLOUDY    72  72 100 CALM      30.10S

$$
FLZ041-047-054-059-064-141-147-300400-
EAST CENTRAL FLORIDA

CITY           SKY/WX    TMP DP  RH WIND       PRES   REMARKS
DAYTONA BEACH  CLOUDY    76  73  91 S8        30.06S
DELAND           N/A     75  75 100 S3        30.08S
JFK SPACE CTR  MOCLDY    75  72  90 SW8       30.07R
CAPE CANAVERAL MOCLDY    74  73  96 SW6       30.07R
PATRICK AFB    CLOUDY    76  72  88 SW10      30.08R
MELBOURNE      CLOUDY    73  71  93 SW5       30.09R
VERO BEACH     CLOUDY    75  71  87 SW5       30.09R
FT PIERCE        N/A     74  72  93 MISG      30.09R
STUART         CLOUDY    73  70  88 SW5       30.11S

STATION/POSITION SKY/WX   TEMP    WIND        PRES    WAVE   SWELL
                          AIR SEA DIR/SP/G            HT/PER HT/PER
                          (F)     (DEG/KT/KT) (MB)    (FT/S) (FT/S)
28.5N   80.2W              78 81  220/ 14/ 17 1018.2R
28.9N   78.5W              81 84  250/ 10/ 12 1018.2R
TRIDENT PIER               76 79  160/  4/  7 1018.7R
27.5N   80.2W                 78                N/A     1/ 8

$$
FLZ050-056-061-142-242-148-248-149-249-151-251-155-255-
160-260-300400-
WEST CENTRAL FLORIDA

CITY           SKY/WX    TMP DP  RH WIND       PRES   REMARKS
CRYSTAL RIVER  FAIR      75  73  94 CALM      30.06S
INVERNESS      FAIR     N/A N/A N/A CALM      30.07S
BROOKSVILLE    PTCLDY    77  75  93 S3        30.08R
ZEPHYRHILLS    FAIR      73  73 100 CALM      30.09R
CLEARWATER     PTCLDY    83  74  74 SW7       30.08S
TAMPA INTL     MOCLDY    83  73  72 SW9       30.08S
TAMPA EXEC     PTCLDY   N/A N/A N/A CALM      30.09R
PLANT CITY     MOCLDY    77  75  94 CALM      30.11R
MACDILL AFB    PTCLDY    82  77  83 SW5       30.08R
PETER O KNIGHT PTCLDY    84  75  74 W3        30.09R
ST PETERSBURG  PTCLDY    83  74  74 W6        30.07R
SARASOTA       PTCLDY    83  72  69 W7        30.08S
VENICE         FAIR      81  72  74 CALM      30.11R

STATION/POSITION SKY/WX   TEMP    WIND        PRES    WAVE   SWELL
                          AIR SEA DIR/SP/G            HT/PER HT/PER
                          (F)     (DEG/KT/KT) (MB)    (FT/S) (FT/S)
CEDAR KEY                  82     270/  6/  8 1017.9R
28.5N   84.5W              83 84  270/ 10/ 12 1017.9R   3/ 6   3/ 6
27.3N   84.2W                 86                N/A     2/ 6
CLEARWATER BEACH           85 88  250/ 10/ 13 1018.4R
MIDDLE TAMPA BAY                  290/ 11/ 12   N/A
VENICE                     84 89   CALM  /  2 1019.1R

$$
FLZ066-069-070-075>078-162-262-165-265-300400-
SOUTHWEST FLORIDA AND KEYS

CITY           SKY/WX    TMP DP  RH WIND       PRES   REMARKS
PUNTA GORDA    MOCLDY    76  72  87 SE7       30.12R
FT MYERS       PTCLDY    78  71  79 SE7       30.11R
SOUTHWEST INTL PTCLDY    77  70  79 SE3       30.12R
NAPLES         PTCLDY    81  73  76 E7        30.11R
MARCO ISLAND   MOCLDY    81  72  74 E8        30.11R
MARATHON       CLEAR     84  73  69 NE3       30.12R
KEY WEST NAS   CLEAR     84  73  69 E3        30.12R
KEY WEST INTL  CLEAR     85  75  72 E5        30.13R

STATION/POSITION SKY/WX   TEMP    WIND        PRES    WAVE   SWELL
                          AIR SEA DIR/SP/G            HT/PER HT/PER
                          (F)     (DEG/KT/KT) (MB)    (FT/S) (FT/S)
VENICE                     84 89   CALM  /  2 1019.1R
NAPLES                        91              1020.0R
26.0N   85.6W              85 86  100/  2/  4 1019.3R   2/ 9   2/ 9
DRY TORTUGAS               85      30/  4/  5 1019.2R
NW FL BAY                  86      20/  4/  5 1019.6
SAND KEY                   85      80/  8/ 10 1020.0R
SOMBRERO KEY               85     110/  6/  6 1020.8R
LONG KEY                   86 91   CALM  /  1 1020.9R
MOLASSES REEF              85 85  160/  6/  7 1020.0R

$$
FLZ067-068-071>074-168-172>174-300400-
SOUTHEAST FLORIDA

CITY           SKY/WX    TMP DP  RH WIND       PRES   REMARKS
W PALM BEACH   CLOUDY    77  74  90 S3        30.12R
FT LAUDER-EXEC MOCLDY    77  72  84 S3        30.12R
FT LAUDERDALE  MOCLDY    80  73  79 SE5       30.12R
POMPANO BEACH  MOCLDY    78  73  84 E3        30.12R
PEMBROKE PINES MOCLDY    79  72  79 CALM      30.13S
OPA LOCKA      MOCLDY    79  74  84 CALM      30.13R
MIAMI          MOCLDY    79  73  82 CALM      30.13R
WEST KENDALL   PTCLDY    79  73  82 CALM      30.12S
HOMESTEAD      PTCLDY    78  74  87 E3        30.12S

STATION/POSITION SKY/WX   TEMP    WIND        PRES    WAVE   SWELL
                          AIR SEA DIR/SP/G            HT/PER HT/PER
                          (F)     (DEG/KT/KT) (MB)    (FT/S) (FT/S)
PORT EVERGLADES            81      70/  4/  5 1019.5R
VIRGINIA KEY               82 88   90/  5/  5 1019.5R
LAKE WORTH                 79 84  120/  5/  8 1019.0R
SETTLEMENT POINT           81     290/  3/  4 1020.7R

$$




USA.gov is the U.S. government's official web portal to all federal, state and local government web resources and services.